www.pogodaiklimat.ru

Погода и климат >> Архив погоды >> Индия >> Deesa


ПОГОДА в Deesa

  • Прогноз погоды в Deesa
  • Монитор погоды в Deesa
  • Климат города

АРХИВ ПОГОДЫ в Deesa

Время (UTC), дата Ветер
(напр.,м/с)
 
Видим.   Явления Облачность Т
(С)
Тd
(С)
f
(%)
Тe
(С)
Тes
(С)
Комфортность P
(гПа)
Po
(гПа)
Тmin
(С)
Tmax
(С)
R
(мм)
R24
(мм)
S
(см)
03 19.06 З 3 4000 м 6/4 600 м
[Sc Ac trans]
+30.6 +23.7 67 +42 +45 опасность
перегрева
1002.4 1002.0 +29.0
06 19.06 Ю 4 4000 м 5/4 600 м
[Sc Ac trans]
+34.6 +21.7 47 +43 +50 опасность
перегрева
1002.4 1002.0
09 19.06 Ю 4 4000 м 5/4 600 м
[Sc Ac trans]
+37.0 +20.1 37 +43 +49 опасность
перегрева
1000.5 1001.0
12 19.06 ЮЗ 3 4000 м 5/5 600 м
[Sc]
+39.2 +21.1 35 +46 +47 опасность
перегрева
998.2 998.0 +39.9
03 20.06 Ю 3 4000 м 3/3 600 м
[]
+30.0 +23.7 69 +41 +45 опасность
перегрева
1003.3 1003.0 +27.7
06 20.06 Ю 3 4000 м ясно +34.2 +21.9 49 +43 +60 опасность
перегрева
1002.7 1003.0
09 20.06 Ю 3 4000 м ясно +39.4 +19.1 31 +44 +59 опасность
перегрева
1000.0 1000.0
12 20.06 ЮЗ 3 4000 м ясно +40.0 +19.5 31 +45 +48 опасность
перегрева
997.9 998.0 +41.1
03 21.06 ЮЗ 2 4000 м ясно +31.2 +24.3 67 +43 +50 опасность
перегрева
1003.3 1003.0 +28.8
06 21.06 ЮЗ 2 4000 м ясно +35.2 +23.1 50 +46 +68 опасность
перегрева
1002.4 1002.0
09 21.06 ЮЗ 4 4000 м ясно +38.8 +18.2 30 +42 +54 опасность
перегрева
999.7 1000.0
12 21.06 З 2 4000 м ясно +40.8 +18.2 27 +44 +48 опасность
перегрева
997.0 997.0 +41.4
03 22.06 З 2 4000 м 6/4 600 м
[Sc Ci fib]
+31.0 +24.4 68 +43 +47 опасность
перегрева
1002.6 1003.0 +29.2
06 22.06 ЮЗ 3 4000 м 5/3 600 м
[Sc Ac trans Ci fib]
+35.6 +23.3 49 +46 +57 опасность
перегрева
1001.9 1002.0
09 22.06 ЮЗ 2 4000 м ясно +37.6 +23.3 44 +48 +66 опасность
перегрева
999.6 1000.0
12 22.06 штиль 0 4000 м 6/6 600 м
[Cu Sc]
+39.4 +22.5 38 +48 +50 опасность
перегрева
997.5 998.0 +40.0
03 23.06 ЮЗ 2 4000 м 9/4 600 м
[Sc Ac trans]
+30.8 +24.5 69 +43 +45 опасность
перегрева
1001.7 1002.0 +29.6
06 23.06 штиль 0 4000 м 5/3 600 м
[Sc Ac trans]
+34.6 +23.8 54 +46 +62 опасность
перегрева
1002.0 1002.0
09 23.06 штиль 0 4000 м 8/4 600 м
[Sc Ac trans]
+37.6 +23.3 44 +48 +57 опасность
перегрева
999.3 999.0
12 23.06 штиль 0 4000 м 6/5 600 м
[Sc Ac trans]
+38.6 +23.2 41 +48 +50 опасность
перегрева
997.0 997.0 +39.2
03 24.06 ЮЗ 2 4000 м 9/4 540 м
[Sc Ac trans]
+30.8 +24.5 69 +43 +45 опасность
перегрева
1002.1 1002.0 +29.9
06 24.06 ЮЗ 3 4000 м 8/5 600 м
[Cu Sc Ac trans]
+34.8 +23.3 51 +45 +51 опасность
перегрева
1001.7 1002.0
09 24.06 ЮЗ 2 4000 м 6/4 600 м
[Sc Ac trans]
+36.6 +23.5 47 +47 +56 опасность
перегрева
999.4 999.0
12 24.06 ЮЗ 3 4000 м 5/5 600 м
[Sc]
+37.0 +23.3 46 +47 +49 опасность
перегрева
997.1 997.0 +38.2
03 25.06 З 2 4000 м 6/4 600 м
[Sc Ac trans]
+31.0 +23.8 66 +43 +46 опасность
перегрева
999.9 1000.0 +29.1
06 25.06 Ю 2 4000 м 5/0 2000 м
[Ac trans]
+35.4 +22.7 48 +45 +59 опасность
перегрева
998.7 999.0
09 25.06 штиль 0 4000 м 6/4 600 м
[Sc Ac trans]
+38.0 +23.2 43 +48 +60 опасность
перегрева
996.5 997.0
12 25.06 ЮЗ 3 4000 м 8/8 600 м
[Cu Sc]
+38.6 +21.8 38 +46 +47 опасность
перегрева
993.8 994.0 +39.8

 

Местоположение метеостанции Deesa (Gujarat, Индия): широта 24.20 долгота 72.20 высота над уровнем моря 136 м.

В архиве по умолчанию представлена погода в Deesa за последнюю неделю. Архивные данные за месяц целиком и за предыдущие месяцы, начиная с января 2011 года, Вы можете получить, выбрав интересующий диапазон дат из раскрывающегося списка и нажав кнопку "Ввод!".


*Определитесь, кто Вы:
робот инопланетянин человек

Внимание! Время в таблицах - всемирное. Для получения местного времени необходимо прибавить поправку, которая в Deesa равна 5.5 ч.

Смотрите также архив погоды в соседних городах и на ближайших метеорологических станциях:

Погода в Mount Abu (Rajasthan, Индия) (69 км)
Погода в Gandhinagar (Gujarat, Индия) (120 км)
Погода в Ahmedabad (Gujarat, Индия) (133 км)
Погода в Surendranagar (Gujarat, Индия) (175 км)
Погода в Maharana Pratap Airport (Rajasthan, Индия) (176 км)
Погода в Barmer (Rajasthan, Индия) (191 км)
Погода в Vallabh Vidyanagar (Gujarat, Индия) (196 км)
Погода в Baroda (Gujarat, Индия) (235 км)
Погода в New Kandla (Gujarat, Индия) (242 км)
Погода в Kandla (Gujarat, Индия) (246 км)

Пояснения к столбцам:

Ветер - указаны скорость ветра в м/с - средняя за 10 мин, порывы в срок и между сроками (в фигурных скобках) и направление, откуда дует ветер: С - северный, СВ - северо-восточный, В - восточный, ЮВ - юго-восточный, Ю - южный, ЮЗ - юго-западный, З - западный, СЗ - северо-западный.
Видимость - горизонтальная дальность видимости в метрах или километрах. При видимости от 1 до 10 км при отсутствии осадков обычно наблюдается дымка, при ухудшении видимости до 1 км и менее - туман. В сухую погоду видимость может ухудшаться дымом, пылью или мглою.
Явления - указаны атмосферные явления, наблюдавшиеся в срок или в последний час перед сроком; фигурными скобками обозначены явления, наблюдавшиеся между сроками (за 1-3 часа до срока); квадратными скобками обозначены град или гололедные отложения с указанием их диаметра в мм.
Облачность - указаны через наклонную черту общая и нижняя облачность в баллах и высота нижней границы облаков в метрах; квадратными скобками обозначены формы облаков: Ci - перистые, Cs - перисто-слоистые, Cc - перисто-кучевые, Ac - высококучевые, As - высокослоистые, Sc - слоисто-кучевые, Ns - слоисто-дождевые, Cu - кучевые, Cb - кучево-дождевые. Подробнее классификацию облаков см. в Атласе облаков (PDF).
T - Температура воздуха - температура, измеренная на высоте 2 м над землей.
Td - Температура точки росы - температура, при понижении до которой содержащийся в воздухе водяной пар достигнет насыщения.
f - Относительная влажность воздуха - влажноcть воздуха, измеренная на высоте 2 м над землей.
Te - Эффективная температура - температура, которую ощущает одетый по сезону человек в тени. Характеристика душности погоды. При расчете учитывается влияние влажности воздуха и скорости ветра на теплоощущения человека.
Tes - Эффективная температура на солнце - температура, которую ощущает человек, с поправкой на солнечный нагрев. Характеристика знойности погоды. Зависит от высоты солнца над горизонтом, облачности и скорости ветра. Ночью, в пасмурную погоду, а также при ветре 12 м/с и более поправка равна нулю.
P - Атмосферное давление - приведенное к уровню моря атмосферное давление.
Po - Атмосферное давление - измеренное на уровне метеостанции атмосферное давление.
Tmin - Минимальная температура - минимум температуры воздуха на высоте 2 м над землей.
Tmax - Максимальная температура - максимум температуры воздуха на высоте 2 м над землей.
R - Количество осадков - Количество выпавших осадков за период времени, мм. При наведении курсора мыши на число - период времени, за который выпало указанное количество осадков.
R24 - Количество осадков - Количество выпавших осадков за 24 часа, мм.
S - Снежный покров - Высота снежного покрова, см. При наведении курсора мыши на число - состояние снежного покрова и степень покрытия местности в баллах.